Flag for Canada Weather past 2 weeks in Calgary, Alberta, Canada

Now
45 °F

Passing clouds.


Feels Like: 45 °F
Forecast: 48 / 76 °F
Wind: 2 mph from West

Location: Calgary International

Current Time: Sep 17, 2014 at 8:00:13 AM

Latest Report: Sep 17, 2014 at 7:00 AM


Visibility: 20 mi

Pressure: 29.90 "Hg

Humidity: 76%

Dew point: 37 °F

Location of CalgaryLocation

Historic Weather in Calgary — Graph

°F

Calgary temperature yesterday

Maximum temperature yesterday: 77 °F (at 5:00 PM)
Minimum temperature yesterday: 45 °F (at 3:00 AM)
Average temperature yesterday: 59 °F

Past Weeks' High & Low Weather Summary

 TemperatureHumidityPressure
High77 °F (Sep 7, 4:00 PM)100% (Sep 8, 10:54 AM)30.71 "Hg (Sep 8, 10:54 AM)
Low28 °F (Sep 11, 7:00 AM)20% (Sep 5, 6:00 PM)29.72 "Hg (Sep 7, 5:00 PM)
Average48 °F69%30.16 "Hg
* Reported Sep 2 7:00 AM — Sep 17 7:00 AM, Calgary, Weather by CustomWeather, © 2014

Note: Actual official high and low records may vary slightly from our data, if they occured in-between our weather recording intervals... More about our weather records

Advertising

Calgary weather history for previous 24 hours

 ConditionsComfort  
Time TempWeatherWind HumidityBarometerVisibility
7:00 AM
Sep 17
45 °FPassing clouds.2 mph76%29.90 "Hg20 mi
6:00 AM46 °FClear.No wind76%29.88 "Hg15 mi
5:00 AM46 °FClear.3 mph82%29.88 "Hg15 mi
4:00 AM46 °FClear.No wind76%29.90 "Hg15 mi
3:00 AM46 °FClear.3 mph76%29.90 "Hg15 mi
2:00 AM46 °FPassing clouds.No wind76%29.91 "Hg15 mi
1:00 AM48 °FClear.5 mph76%29.91 "Hg15 mi
12:00 AM52 °FClear.3 mph72%29.91 "Hg15 mi
11:00 PM
Sep 16
55 °FClear.7 mph63%29.91 "Hg15 mi
10:00 PM57 °FPassing clouds.7 mph63%29.92 "Hg15 mi
9:00 PM63 °FPassing clouds.No wind49%29.91 "Hg15 mi
8:00 PM66 °FPassing clouds.8 mph43%29.91 "Hg40 mi
7:00 PM70 °FPassing clouds.7 mph40%29.90 "Hg40 mi
6:00 PM75 °FPassing clouds.8 mph31%29.88 "Hg40 mi
5:00 PM77 °FPassing clouds.2 mph28%29.88 "Hg40 mi
4:00 PM75 °FPassing clouds.5 mph27%29.89 "Hg40 mi
3:00 PM75 °FPassing clouds.3 mph29%29.91 "Hg40 mi
2:00 PM73 °FPassing clouds.5 mph29%29.92 "Hg40 mi
1:00 PM72 °FPassing clouds.5 mph31%29.91 "Hg40 mi
12:00 PM68 °FPassing clouds.7 mph40%29.93 "Hg40 mi
11:00 AM64 °FPassing clouds.5 mph52%29.95 "Hg40 mi
10:00 AM59 °FPassing clouds.2 mph55%29.96 "Hg40 mi
9:00 AM50 °FPassing clouds.3 mph71%29.98 "Hg40 mi
8:00 AM46 °FPassing clouds.3 mph76%29.99 "Hg40 mi
Weather by CustomWeather, © 2014

See weather overviewHow to use our weather pages